TimePST,TemperatureF,Dew PointF,Humidity,Sea Level PressureIn,VisibilityMPH,Wind Direction,Wind SpeedMPH,Gust SpeedMPH,PrecipitationIn,Events,Conditions,WindDirDegrees,DateUTC
12:10 AM,37.4,35.6,93,30.02,10.0,West,3.5,-,N/A,,Overcast,270,2012-11-18 08:10:00
12:30 AM,37.4,35.6,93,30.03,10.0,West,3.5,-,N/A,,Overcast,280,2012-11-18 08:30:00
12:50 AM,37.4,35.6,93,30.04,10.0,WSW,3.5,-,N/A,,Overcast,250,2012-11-18 08:50:00
1:10 AM,37.4,35.6,93,30.04,10.0,Calm,Calm,-,N/A,,Overcast,0,2012-11-18 09:10:00
1:30 AM,37.4,35.6,93,30.04,10.0,NW,3.5,-,N/A,,Overcast,310,2012-11-18 09:30:00
1:50 AM,35.6,35.6,100,30.04,10.0,NW,4.6,-,N/A,,Scattered Clouds,310,2012-11-18 09:50:00
2:10 AM,35.6,33.8,93,30.04,10.0,Calm,Calm,-,N/A,,Mostly Cloudy,0,2012-11-18 10:10:00
2:30 AM,35.6,35.6,100,30.05,10.0,Calm,Calm,-,N/A,,Overcast,0,2012-11-18 10:30:00
2:50 AM,35.6,33.8,93,30.05,10.0,Calm,Calm,-,N/A,,Mostly Cloudy,0,2012-11-18 10:50:00
3:10 AM,35.6,33.8,93,30.04,10.0,Calm,Calm,-,N/A,,Overcast,0,2012-11-18 11:10:00
3:30 AM,35.6,33.8,93,30.05,10.0,Calm,Calm,-,N/A,,Mostly Cloudy,0,2012-11-18 11:30:00
3:50 AM,35.6,33.8,93,30.05,10.0,Calm,Calm,-,N/A,,Partly Cloudy,0,2012-11-18 11:50:00
4:10 AM,35.6,33.8,93,30.05,10.0,Calm,Calm,-,N/A,,Clear,0,2012-11-18 12:10:00
4:30 AM,35.6,33.8,93,30.07,10.0,West,3.5,-,N/A,,Clear,280,2012-11-18 12:30:00
4:50 AM,35.6,33.8,93,30.07,10.0,Calm,Calm,-,N/A,,Scattered Clouds,0,2012-11-18 12:50:00
5:10 AM,35.6,33.8,93,30.06,10.0,West,3.5,-,N/A,,Mostly Cloudy,280,2012-11-18 13:10:00
5:30 AM,35.6,33.8,93,30.05,10.0,NNW,3.5,-,N/A,,Overcast,340,2012-11-18 13:30:00
5:50 AM,35.6,32.0,87,30.06,10.0,Calm,Calm,-,N/A,,Overcast,0,2012-11-18 13:50:00
6:10 AM,35.6,33.8,93,30.07,10.0,Calm,Calm,-,N/A,,Overcast,0,2012-11-18 14:10:00
6:30 AM,35.6,33.8,93,30.07,10.0,Calm,Calm,-,N/A,,Overcast,0,2012-11-18 14:30:00
6:50 AM,35.6,33.8,93,30.07,10.0,Calm,Calm,-,N/A,,Overcast,0,2012-11-18 14:50:00
7:10 AM,35.6,33.8,93,30.08,10.0,Calm,Calm,-,N/A,,Overcast,0,2012-11-18 15:10:00
7:30 AM,35.6,33.8,93,30.09,10.0,NNW,3.5,-,N/A,,Overcast,330,2012-11-18 15:30:00
7:50 AM,35.6,35.6,100,30.09,10.0,Calm,Calm,-,N/A,,Overcast,0,2012-11-18 15:50:00
8:10 AM,37.4,35.6,93,30.09,10.0,Calm,Calm,-,N/A,,Overcast,0,2012-11-18 16:10:00
8:30 AM,37.4,35.6,93,30.09,10.0,Calm,Calm,-,N/A,,Overcast,0,2012-11-18 16:30:00
8:50 AM,37.4,35.6,93,30.10,10.0,West,3.5,-,N/A,,Overcast,280,2012-11-18 16:50:00
9:10 AM,37.4,35.6,93,30.10,10.0,Calm,Calm,-,N/A,,Overcast,0,2012-11-18 17:10:00
9:30 AM,39.2,35.6,87,30.11,10.0,Calm,Calm,-,N/A,,Overcast,0,2012-11-18 17:30:00
9:50 AM,39.2,35.6,87,30.11,10.0,Calm,Calm,-,N/A,,Overcast,0,2012-11-18 17:50:00
10:10 AM,39.2,35.6,87,30.11,10.0,Calm,Calm,-,N/A,,Overcast,0,2012-11-18 18:10:00
10:30 AM,39.2,35.6,87,30.12,10.0,Calm,Calm,-,N/A,,Overcast,0,2012-11-18 18:30:00
10:50 AM,41.0,35.6,81,30.12,10.0,Calm,Calm,-,N/A,,Overcast,0,2012-11-18 18:50:00
11:10 AM,41.0,35.6,81,30.11,10.0,Calm,Calm,-,N/A,,Overcast,0,2012-11-18 19:10:00
11:30 AM,41.0,35.6,81,30.11,10.0,Calm,Calm,-,N/A,,Overcast,0,2012-11-18 19:30:00
11:50 AM,41.0,37.4,87,30.11,10.0,Calm,Calm,-,N/A,,Overcast,0,2012-11-18 19:50:00
12:10 PM,41.0,37.4,87,30.11,10.0,Calm,Calm,-,N/A,,Mostly Cloudy,0,2012-11-18 20:10:00
12:30 PM,41.0,37.4,87,30.10,10.0,Calm,Calm,-,N/A,,Mostly Cloudy,0,2012-11-18 20:30:00
12:50 PM,42.8,37.4,81,30.10,10.0,Calm,Calm,-,N/A,,Overcast,0,2012-11-18 20:50:00
1:10 PM,42.8,37.4,81,30.10,10.0,Calm,Calm,-,N/A,,Overcast,0,2012-11-18 21:10:00
1:30 PM,44.6,37.4,76,30.10,10.0,Calm,Calm,-,N/A,,Mostly Cloudy,0,2012-11-18 21:30:00
1:50 PM,44.6,39.2,81,30.10,10.0,Calm,Calm,-,N/A,,Partly Cloudy,0,2012-11-18 21:50:00
2:10 PM,44.6,37.4,76,30.09,10.0,South,3.5,-,N/A,,Partly Cloudy,180,2012-11-18 22:10:00
2:30 PM,44.6,37.4,76,30.10,10.0,SW,3.5,-,N/A,,Scattered Clouds,230,2012-11-18 22:30:00
2:50 PM,42.8,35.6,76,30.11,5.0,South,8.1,-,N/A,,Mostly Cloudy,190,2012-11-18 22:50:00
3:10 PM,41.0,37.4,87,30.11,8.0,SW,3.5,-,N/A,,Mostly Cloudy,220,2012-11-18 23:10:00
3:30 PM,41.0,37.4,87,30.11,8.0,SW,4.6,-,N/A,,Mostly Cloudy,220,2012-11-18 23:30:00
3:50 PM,41.0,37.4,87,30.11,9.0,WSW,4.6,-,N/A,,Mostly Cloudy,250,2012-11-18 23:50:00
4:10 PM,41.0,37.4,87,30.13,9.0,WSW,4.6,-,N/A,,Mostly Cloudy,250,2012-11-19 00:10:00
4:30 PM,39.2,37.4,93,30.12,5.0,Calm,Calm,-,0.01,,Overcast,0,2012-11-19 00:30:00
4:50 PM,39.2,37.4,93,30.13,5.0,West,5.8,-,0.02,,Overcast,260,2012-11-19 00:50:00
5:10 PM,39.2,37.4,93,30.13,5.0,SW,4.6,-,0.01,,Overcast,230,2012-11-19 01:10:00
5:30 PM,39.2,37.4,93,30.13,5.0,West,4.6,-,0.02,,Overcast,260,2012-11-19 01:30:00
5:50 PM,39.2,37.4,93,30.13,5.0,WSW,3.5,-,0.03,,Overcast,250,2012-11-19 01:50:00
6:10 PM,39.2,37.4,93,30.13,4.0,WSW,3.5,-,0.01,,Overcast,250,2012-11-19 02:10:00
6:30 PM,39.2,37.4,93,30.14,3.0,WNW,3.5,-,0.02,,Overcast,300,2012-11-19 02:30:00
6:50 PM,39.2,37.4,93,30.15,2.5,West,3.5,-,0.03,,Mostly Cloudy,280,2012-11-19 02:50:00
7:10 PM,39.2,37.4,93,30.15,4.0,WNW,4.6,-,N/A,,Overcast,300,2012-11-19 03:10:00
7:30 PM,37.4,37.4,100,30.16,5.0,NW,3.5,-,0.03,,Overcast,310,2012-11-19 03:30:00
7:50 PM,37.4,37.4,100,30.16,5.0,Calm,Calm,-,0.04,,Overcast,0,2012-11-19 03:50:00
8:10 PM,37.4,37.4,100,30.16,5.0,Calm,Calm,-,0.02,,Overcast,0,2012-11-19 04:10:00
8:30 PM,37.4,37.4,100,30.16,5.0,West,5.8,-,0.04,,Overcast,280,2012-11-19 04:30:00
8:50 PM,37.4,37.4,100,30.17,5.0,West,5.8,-,0.07,,Overcast,270,2012-11-19 04:50:00
9:10 PM,37.4,37.4,100,30.18,5.0,West,4.6,-,0.01,,Overcast,270,2012-11-19 05:10:00
9:30 PM,37.4,37.4,100,30.18,6.0,Calm,Calm,-,0.04,,Overcast,0,2012-11-19 05:30:00
9:50 PM,37.4,37.4,100,30.18,5.0,Calm,Calm,-,0.06,,Overcast,0,2012-11-19 05:50:00
10:10 PM,37.4,37.4,100,30.18,6.0,WNW,3.5,-,0.01,,Overcast,290,2012-11-19 06:10:00
10:30 PM,37.4,37.4,100,30.18,7.0,Calm,Calm,-,0.04,,Overcast,0,2012-11-19 06:30:00
10:50 PM,39.2,37.4,93,30.19,6.0,Calm,Calm,-,0.06,,Overcast,0,2012-11-19 06:50:00
11:10 PM,39.2,37.4,93,30.20,5.0,Calm,Calm,-,0.02,,Overcast,0,2012-11-19 07:10:00
11:30 PM,39.2,37.4,93,30.19,4.0,NW,3.5,-,0.04,,Overcast,320,2012-11-19 07:30:00
11:50 PM,39.2,37.4,93,30.19,5.0,NW,4.6,-,0.06,,Overcast,310,2012-11-19 07:50:00